Weather History for Ketchikan, AK

Change the Weather History Date:

Friday, March 8, 2013

  Actual Average Record
Temperature  
Mean Temperature 34 °F -  
Max Temperature 39 °F 42 °F 54 °F (1957)
Min Temperature 28 °F 31 °F 6 °F (2002)
Degree Days  
Heating Degree Days 32    
Moisture  
Dew Point 35 °F    
Average Humidity 94    
Maximum Humidity 100    
Minimum Humidity 89    
Precipitation  
Precipitation 0.04 in - - ()
Sea Level Pressure  
Sea Level Pressure 30.17 in    
Wind  
Wind Speed 4 mph (SE)    
Max Wind Speed 9 mph    
Max Gust Speed -    
Visibility 10 miles    
Events Rain    
Averages and records for this station are not official NWS values.
T = Trace of Precipitation, MM = Missing Value Source: NWS Daily Summary

Daily Weather History Graph

Daily Weather History Graph

Search for Another Location

Airport:

Trip Planner

Search our weather history database for the weather conditions in past years. The results will help you decide how hot, cold, wet, or windy it might be!

Date:

Astronomy

Mar. 08, 2013 Rise Set
Actual Time 6:18 AM AKST 5:37 PM AKST
Civil Twilight 5:42 AM AKST 6:13 PM AKST
Nautical Twilight 4:59 AM AKST 6:56 PM AKST
Astronomical Twilight 4:16 AM AKST 7:39 PM AKST
Moon 4:35 AM AKST (3/8) 2:16 PM AKST (3/8)
Length of Visible Light 12h 31m
Length of Day
11h 18m
Waning Crescent, 11% of the Moon is Illuminated
Mar 8
Waning Crescent
Mar 11
New
Mar 19
First Quarter
Mar 27
Full
Apr 2
Last Quarter

Hourly Weather History & Observations

Time (AKST) Temp. Windchill Dew Point Humidity Pressure Visibility Wind Dir Wind Speed Gust Speed Precip Events Conditions
12:53 AM 30.9 °F 26.2 °F 28.9 °F 92% 30.12 in 10.0 mi SE 4.6 mph - N/A   Clear
1:53 AM 30.9 °F 27.5 °F 30.0 °F 96% 30.12 in 10.0 mi SE 3.5 mph - N/A   Clear
3:53 AM 32.0 °F 26.4 °F 30.0 °F 92% 30.12 in 10.0 mi SE 5.8 mph - N/A   Clear
4:53 AM 32.0 °F 27.5 °F 30.0 °F 92% 30.13 in 10.0 mi SE 4.6 mph - N/A   Clear
5:53 AM 28.9 °F - 28.0 °F 96% 30.13 in 10.0 mi Calm Calm - N/A   Partly Cloudy
6:07 AM 30.2 °F - 28.4 °F 93% 30.13 in 10.0 mi Calm Calm - N/A   Scattered Clouds
6:53 AM 30.9 °F - 30.0 °F 96% 30.14 in 10.0 mi Calm Calm - N/A   Scattered Clouds
7:53 AM 33.1 °F 30.0 °F 30.9 °F 92% 30.14 in 10.0 mi SE 3.5 mph - N/A   Mostly Cloudy
8:53 AM 35.1 °F 32.2 °F 32.0 °F 89% 30.14 in 10.0 mi ESE 3.5 mph - N/A   Mostly Cloudy
9:53 AM 37.0 °F 33.3 °F 34.0 °F 89% 30.16 in 10.0 mi SE 4.6 mph - 0.00 in Rain Light Rain
10:53 AM 37.9 °F 34.4 °F 35.1 °F 89% 30.17 in 10.0 mi ESE 4.6 mph - 0.00 in   Overcast
11:53 AM 39.0 °F 34.8 °F 37.0 °F 93% 30.17 in 10.0 mi SE 5.8 mph - 0.00 in Rain Light Rain
12:53 PM 39.9 °F 35.8 °F 37.9 °F 93% 30.18 in 10.0 mi SE 5.8 mph - 0.01 in Rain Light Rain
1:53 PM 39.9 °F 36.7 °F 39.0 °F 97% 30.18 in 10.0 mi SSE 4.6 mph - 0.01 in Rain Light Rain
2:53 PM 39.9 °F 35.1 °F 39.0 °F 97% 30.18 in 8.0 mi SE 6.9 mph - 0.01 in Rain Light Rain
3:53 PM 39.9 °F 33.9 °F 39.9 °F 100% 30.18 in 10.0 mi ESE 9.2 mph - 0.00 in   Overcast
4:53 PM 39.9 °F 35.8 °F 39.0 °F 97% 30.18 in 10.0 mi SSE 5.8 mph - 0.00 in Rain Light Rain
5:53 PM 39.0 °F 36.8 °F 37.9 °F 96% 30.19 in 10.0 mi SSE 3.5 mph - 0.01 in   Overcast
6:53 PM 37.9 °F - 37.9 °F 100% 30.20 in 10.0 mi Calm Calm - N/A   Overcast
7:53 PM 39.0 °F - 37.9 °F 96% 30.20 in 10.0 mi Calm Calm - N/A   Overcast
8:53 PM 39.0 °F - 37.9 °F 96% 30.20 in 10.0 mi Calm Calm - 0.00 in   Overcast
9:53 PM 39.0 °F 35.7 °F 37.9 °F 96% 30.19 in 10.0 mi SSE 4.6 mph - 0.00 in   Overcast
10:53 PM 39.9 °F 35.8 °F 37.9 °F 93% 30.20 in 10.0 mi SSE 5.8 mph - N/A   Overcast
11:07 PM 39.2 °F 35.9 °F 37.4 °F 93% 30.19 in 10.0 mi South 4.6 mph - N/A   Overcast
11:53 PM 39.0 °F 34.8 °F 37.9 °F 96% 30.19 in 10.0 mi South 5.8 mph - 0.00 in   Overcast